Find Starlink 37358

NORAD ID: 68700 Int'l Des: 2026-081 Owner: SPXS Country: US Constellation: starlink operational
LEOCIRCULAR

Live-Position

3D-Globus wird geladen...

Über Starlink 37358

Beschreibung wird geladen...

Nächste Überflüge

Passes for default location (London). Set your location on the main map for personalized predictions.

Höhenverlauf

Loading altitude history...

Zweizeiliger Elementsatz

1 68700C 26081A 26105.43451389 .00593190 00000+0 76777-3 0 1051
2 68700 53.1627 237.7341 0007753 301.8674 310.2509 16.06018617 12
Epoch: 15. Apr. 2026 • Age: 21 hours

Aktueller Status

Höhe 259.2 km
Geschwindigkeit 7.75 km/s
Subsatellitenpunkt 16.14°N, 92.19°E
Startdatum 14. Apr. 2026
Alter 1 days
Typ internet

Technische Details

Klassifizierung Payload
Masse 575.00 kg
Trockenmasse 530.00 kg
Gesamtmasse 575.00 kg
Länge 0.30 m
Durchmesser 4.10 m
Spannweite 29.00 m
Form Box + pan
Hersteller SPXS
Bus-Typ Starlink V2MO
Phasenstatus In Orbit
Besitzer/Staat SPXS/US

Most Searched